| time (UTC) | temp F | wind direction | speed MPH | gust MPH | rain 1hr in | rain 24hr in | rain mn in | humidity % | barometer mb |
| 20260902191557 | 99 | 187 | 3.0 | 8.0 | 0.00 | 0.00 | 0.00 | 62 | 1017.0 |
| 20260902190051 | 98 | 340 | 3.0 | 7.0 | 0.00 | 0.00 | 0.00 | 62 | 1017.1 |
| 20260902184554 | 98 | 43 | 1.0 | 8.0 | 0.00 | 0.00 | 0.00 | 61 | 1017.2 |
| 20260902183042 | 96 | 348 | 2.0 | 6.0 | 0.00 | 0.00 | 0.00 | 67 | 1017.3 |
| 20260902181538 | 97 | 52 | 0.0 | 7.0 | 0.00 | 0.00 | 0.00 | 67 | 1017.4 |
| 20260902180029 | 97 | 229 | 1.0 | 5.0 | 0.00 | 0.00 | 0.00 | 67 | 1017.5 |
| 20260902174523 | 96 | 294 | 2.0 | 8.0 | 0.00 | 0.00 | 0.00 | 70 | 1017.7 |
| 20260902173018 | 95 | 334 | 3.0 | 10.0 | 0.00 | 0.00 | 0.00 | 71 | 1018.0 |
| 20260902171513 | 95 | 264 | 1.0 | 7.0 | 0.00 | 0.00 | 0.00 | 71 | 1018.3 |
| 20260902170006 | 95 | 262 | 1.0 | 6.0 | 0.00 | 0.00 | 0.00 | 72 | 1018.5 |
| 20260902164559 | 93 | 244 | 2.0 | 9.0 | 0.00 | 0.00 | 0.00 | 74 | 1018.6 |
| 20260902163102 | 93 | 7 | 1.0 | 9.0 | 0.00 | 0.00 | 0.00 | 73 | 1018.6 |
| 20260902161553 | 93 | 254 | 4.0 | 10.0 | 0.00 | 0.00 | 0.00 | 73 | 1018.7 |
| 20260902160041 | 93 | 145 | 2.0 | 6.0 | 0.00 | 0.00 | 0.00 | 73 | 1018.8 |
| 20260902154535 | 92 | 268 | 3.0 | 9.0 | 0.00 | 0.00 | 0.00 | 73 | 1018.9 |
| 20260902153029 | 91 | 28 | 3.0 | 8.0 | 0.00 | 0.00 | 0.00 | 73 | 1018.9 |
| 20260902151524 | 91 | 339 | 0.0 | 6.0 | 0.00 | 0.00 | 0.00 | 75 | 1018.7 |
| 20260902150018 | 90 | 303 | 1.0 | 7.0 | 0.00 | 0.00 | 0.00 | 75 | 1018.8 |
| 20260902144527 | 89 | 211 | 2.0 | 7.0 | 0.00 | 0.00 | 0.00 | 75 | 1018.8 |
| 20260902143015 | 88 | 225 | 3.0 | 7.0 | 0.00 | 0.00 | 0.00 | 77 | 1018.7 |
| 20260902141510 | 87 | 163 | 1.0 | 6.0 | 0.00 | 0.00 | 0.00 | 77 | 1018.9 |
| 20260902140001 | 85 | 244 | 2.0 | 6.0 | 0.00 | 0.00 | 0.00 | 79 | 1019.0 |
| 20260902134700 | 85 | 157 | 1.0 | 5.0 | 0.00 | 0.00 | 0.00 | 79 | 1019.1 |
| 20260902133054 | 84 | 261 | 0.0 | 2.0 | 0.00 | 0.00 | 0.00 | 79 | 1019.2 |
| 20260902131550 | 83 | 268 | 0.0 | 4.0 | 0.00 | 0.00 | 0.00 | 79 | 1019.2 |
| 20260902130053 | 81 | 265 | 0.0 | 3.0 | 0.00 | 0.00 | 0.00 | 79 | 1019.0 |
| 20260902124544 | 80 | 140 | 0.0 | 0.0 | 0.00 | 0.00 | 0.00 | 83 | 1019.2 |
| 20260902123047 | 76 | 140 | 0.0 | 0.0 | 0.00 | 0.00 | 0.00 | 86 | 1019.1 |
| 20260902121538 | 0 | 0.0 | 0.0 | 0.00 | 0.00 | 0.00 | 1019.0 | ||
| 20260902120035 | 0 | 0.0 | 0.0 | 0.00 | 0.00 | 0.00 | 1019.1 | ||
| 20260902114536 | 0 | 0.0 | 0.0 | 0.00 | 0.00 | 0.00 | 1018.8 | ||
| 20260902113034 | 0 | 0.0 | 0.0 | 0.00 | 0.00 | 0.00 | 1018.7 | ||
| 20260902111521 | 0 | 0.0 | 0.0 | 0.00 | 0.00 | 0.00 | 1018.5 | ||
| 20260902110012 | 0 | 0.0 | 0.0 | 0.00 | 0.00 | 0.00 | 1018.5 | ||
| 20260902104509 | 0 | 0.0 | 0.0 | 0.00 | 0.00 | 0.00 | 1018.4 | ||
| 20260902103004 | 0 | 0.0 | 0.0 | 0.00 | 0.00 | 0.00 | 1018.3 | ||
| 20260902101605 | 0 | 156 | 0.0 | 0.0 | 0.00 | 0.00 | 0.00 | 1018.1 | |
| 20260902100108 | 77 | 163 | 0.0 | 0.0 | 0.00 | 0.00 | 0.00 | 86 | 1018.0 |
| 20260902094552 | 77 | 191 | 0.0 | 0.0 | 0.00 | 0.00 | 0.00 | 88 | 1018.0 |
| 20260902093050 | 77 | 191 | 0.0 | 0.0 | 0.00 | 0.00 | 0.00 | 88 | 1017.9 |
| 20260902091642 | 78 | 191 | 0.0 | 0.0 | 0.00 | 0.00 | 0.00 | 87 | 1017.9 |
| 20260902090141 | 79 | 175 | 0.0 | 2.0 | 0.00 | 0.00 | 0.00 | 86 | 1017.8 |
| 20260902084536 | 79 | 155 | 0.0 | 3.0 | 0.00 | 0.00 | 0.00 | 86 | 1017.7 |
| 20260902083034 | 80 | 156 | 1.0 | 4.0 | 0.00 | 0.00 | 0.00 | 86 | 1017.6 |
| 20260902081529 | 79 | 154 | 0.0 | 0.0 | 0.00 | 0.00 | 0.00 | 87 | 1017.7 |
| 20260902080026 | 80 | 166 | 0.0 | 3.0 | 0.00 | 0.00 | 0.00 | 86 | 1017.6 |
| 20260902074523 | 80 | 166 | 1.0 | 3.0 | 0.00 | 0.00 | 0.00 | 85 | 1017.7 |
| 20260902073021 | 80 | 187 | 2.0 | 5.0 | 0.00 | 0.00 | 0.00 | 86 | 1017.6 |
| 20260902071618 | 81 | 156 | 2.0 | 4.0 | 0.00 | 0.00 | 0.00 | 86 | 1017.8 |
| 20260902070015 | 81 | 161 | 0.0 | 3.0 | 0.00 | 0.00 | 0.00 | 86 | 1017.8 |
| 20260902064512 | 81 | 152 | 2.0 | 4.0 | 0.00 | 0.00 | 0.00 | 86 | 1017.8 |
| 20260902063010 | 81 | 171 | 2.0 | 4.0 | 0.00 | 0.00 | 0.00 | 86 | 1017.9 |
| 20260902061507 | 81 | 166 | 1.0 | 4.0 | 0.00 | 0.00 | 0.00 | 86 | 1017.8 |
| 20260902060006 | 82 | 189 | 2.0 | 5.0 | 0.00 | 0.00 | 0.00 | 86 | 1017.9 |
| 20260902054702 | 82 | 170 | 1.0 | 4.0 | 0.00 | 0.00 | 0.00 | 86 | 1017.8 |
| 20260902053109 | 82 | 133 | 3.0 | 6.0 | 0.00 | 0.00 | 0.00 | 85 | 1017.8 |
| 20260902051654 | 82 | 178 | 3.0 | 4.0 | 0.00 | 0.00 | 0.00 | 85 | 1017.8 |
| 20260902050104 | 83 | 150 | 2.0 | 6.0 | 0.00 | 0.00 | 0.00 | 85 | 1017.7 |
| 20260902044548 | 83 | 178 | 3.0 | 5.0 | 0.00 | 0.00 | 0.00 | 85 | 1017.5 |
| 20260902043050 | 83 | 149 | 3.0 | 5.0 | 0.00 | 0.00 | 0.00 | 84 | 1017.6 |
| 20260902041544 | 83 | 159 | 1.0 | 3.0 | 0.00 | 0.00 | 0.00 | 84 | 1017.7 |
| 20260902040042 | 83 | 164 | 1.0 | 4.0 | 0.00 | 0.00 | 0.00 | 83 | 1017.6 |
| 20260902034539 | 84 | 155 | 2.0 | 6.0 | 0.00 | 0.00 | 0.00 | 83 | 1017.7 |
| 20260902033038 | 84 | 168 | 0.0 | 3.0 | 0.00 | 0.00 | 0.00 | 82 | 1017.7 |
| 20260902031535 | 84 | 186 | 0.0 | 3.0 | 0.00 | 0.00 | 0.00 | 82 | 1017.6 |
| 20260902030034 | 85 | 178 | 0.0 | 2.0 | 0.00 | 0.00 | 0.00 | 81 | 1017.6 |
| 20260902024531 | 85 | 161 | 1.0 | 4.0 | 0.00 | 0.00 | 0.00 | 80 | 1017.5 |
| 20260902023040 | 86 | 151 | 2.0 | 4.0 | 0.00 | 0.00 | 0.00 | 79 | 1017.3 |
| 20260902021527 | 86 | 150 | 2.0 | 4.0 | 0.00 | 0.00 | 0.00 | 78 | 1017.1 |
| 20260902020026 | 86 | 142 | 1.0 | 5.0 | 0.00 | 0.00 | 0.00 | 77 | 1017.0 |
| 20260902014533 | 87 | 166 | 1.0 | 3.0 | 0.00 | 0.00 | 0.00 | 77 | 1016.8 |
| 20260902013022 | 87 | 174 | 1.0 | 2.0 | 0.00 | 0.00 | 0.00 | 75 | 1016.6 |
| 20260902011538 | 88 | 158 | 1.0 | 3.0 | 0.00 | 0.00 | 0.00 | 74 | 1016.5 |
| 20260902010017 | 88 | 152 | 1.0 | 2.0 | 0.00 | 0.00 | 0.00 | 73 | 1016.4 |
| 20260902004514 | 89 | 178 | 0.0 | 1.0 | 0.00 | 0.00 | 0.00 | 71 | 1016.4 |
| 20260902003013 | 89 | 176 | 0.0 | 1.0 | 0.00 | 0.00 | 0.00 | 70 | 1016.5 |
| 20260902001511 | 91 | 162 | 0.0 | 2.0 | 0.00 | 0.00 | 0.00 | 67 | 1016.3 |
| 20260902000009 | 93 | 173 | 0.0 | 1.0 | 0.00 | 0.00 | 0.00 | 67 | 1016.3 |
| 20260901234506 | 95 | 192 | 0.0 | 1.0 | 0.00 | 0.00 | 0.00 | 65 | 1016.3 |
| 20260901233004 | 96 | 258 | 0.0 | 2.0 | 0.00 | 0.00 | 0.00 | 64 | 1016.5 |
| 20260901231503 | 96 | 178 | 0.0 | 3.0 | 0.00 | 0.00 | 0.00 | 62 | 1016.5 |
| 20260901230001 | 97 | 159 | 0.0 | 4.0 | 0.00 | 0.00 | 0.00 | 61 | 1016.5 |
| 20260901224606 | 98 | 292 | 1.0 | 6.0 | 0.00 | 0.00 | 0.00 | 59 | 1016.5 |
| 20260901223058 | 99 | 193 | 0.0 | 5.0 | 0.00 | 0.00 | 0.00 | 59 | 1016.5 |
| 20260901221602 | 99 | 161 | 1.0 | 7.0 | 0.00 | 0.00 | 0.00 | 58 | 1016.5 |
| 20260901220056 | 101 | 104 | 1.0 | 5.0 | 0.00 | 0.00 | 0.00 | 58 | 1016.4 |
| 20260901214601 | 100 | 298 | 3.0 | 8.0 | 0.00 | 0.00 | 0.00 | 58 | 1016.4 |
| 20260901213055 | 100 | 315 | 0.0 | 5.0 | 0.00 | 0.00 | 0.00 | 59 | 1016.4 |
| 20260901211550 | 100 | 151 | 3.0 | 7.0 | 0.00 | 0.00 | 0.00 | 59 | 1016.5 |
| 20260901210106 | 100 | 171 | 3.0 | 7.0 | 0.00 | 0.00 | 0.00 | 57 | 1016.8 |
| 20260901204544 | 100 | 147 | 0.0 | 4.0 | 0.00 | 0.00 | 0.00 | 59 | 1016.9 |
| 20260901203039 | 99 | 342 | 0.0 | 5.0 | 0.00 | 0.00 | 0.00 | 60 | 1017.0 |
| 20260901201537 | 99 | 341 | 1.0 | 6.0 | 0.00 | 0.00 | 0.00 | 59 | 1017.2 |
| 20260901200034 | 99 | 250 | 0.0 | 8.0 | 0.00 | 0.00 | 0.00 | 59 | 1017.3 |
| 20260901194533 | 99 | 237 | 2.0 | 6.0 | 0.00 | 0.00 | 0.00 | 59 | 1017.4 |
| 20260901193032 | 97 | 337 | 0.0 | 7.0 | 0.00 | 0.00 | 0.00 | 63 | 1017.6 |